Weather observations for the past three days for
Childress, Childress Municipal Airport
Imperial (Metric)
Date Time (cdt) Wind (mph) Vis. (mi.) Weather Sky Cond. Temperature (ºF) Relative Humidity Wind Chill (°F) Heat Index (°F) Pressure Precipitation (in)
Air Dwpt 6 hour altimeter (in) sea level (mb) 1 hr 3 hr 6 hr
Max. Min.
26 21:53 E 6 10.00 Fair CLR 82 37 20% 80 29.8 1006.2
26 20:53 NE 7 10.00 Fair CLR 84.9 28.9 13% 82 29.78 1005.2
26 19:53 N 8 10.00 Fair CLR 93 28.9 10% 88 29.75 1004.4
26 18:53 N 7 10.00 Fair CLR 96.1 28.9 97 90 9% 91 29.74 1004.1
26 17:53 NW 8 10.00 Fair CLR 96.1 34 11% 91 29.73 1003.9
26 16:53 N 15 G 22 10.00 Fair CLR 96.1 33.1 11% 91 29.73 1003.8
26 15:53 Vrbl 6 10.00 Fair CLR 93.9 36 13% 89 29.74 1004.2
26 14:53 N 14 G 20 10.00 Fair CLR 93 39.9 16% 89 29.75 1004.2
26 13:53 NW 15 G 24 10.00 Fair CLR 93 39.9 16% 89 29.75 1004.3
26 12:53 NW 14 10.00 Fair CLR 91 39.9 91 66.9 17% 87 29.75 1004.4
26 11:53 N 15 10.00 Fair CLR 89.1 39 17% 85 29.75 1004.5
26 10:53 NW 18 G 23 10.00 Fair CLR 84.9 37 18% 82 29.74 1003.9
26 09:53 NW 14 10.00 Fair CLR 84 34 17% 81 29.73 1003.5
26 08:53 NW 15 10.00 Fair CLR 80.1 33.1 18% 79 29.7 1002.6
26 07:53 W 13 10.00 Fair CLR 73 30 20% 29.68 1001.9
26 06:53 W 10 10.00 Fair CLR 66.9 27 78.1 66.9 22% 29.64 1000.7
26 05:53 NW 12 10.00 Fair CLR 68 27 21% 29.62 999.9
26 04:53 W 13 10.00 Fair CLR 70 25 18% 29.59 998.8
26 03:53 W 12 10.00 Fair CLR 68 27 21% 29.58 998.6
26 02:53 W 14 10.00 Fair CLR 75.9 23 14% 76 29.56 997.5
26 01:53 W 12 10.00 Fair CLR 75.9 26.1 16% 76 29.56 997.7
26 00:53 SW 10 10.00 Fair CLR 75.9 28.9 99 75.9 18% 76 29.57 998.2
25 23:53 SW 9 10.00 Fair CLR 77 37 24% 77 29.58 998.7
25 22:53 S 12 10.00 Fair CLR 82.9 50 32% 81 29.57 998.4
25 21:53 S 13 10.00 Fair CLR 84.9 64 50% 86 29.56 998.2
25 20:53 SE 13 G 23 9.00 Fair CLR 87.1 66.9 51% 90 29.55 997.7
25 19:53 S 12 G 30 9.00 Fair CLR 90 68 48% 94 29.54 997.3
25 18:53 SW 16 G 26 10.00 Fair CLR 99 57.9 99 89.1 26% 98 29.53 997.2
25 17:53 S 18 G 24 10.00 A Few Clouds FEW090 98.1 61 29% 99 29.55 998.0
25 16:53 SW 23 G 35 7.00 Partly Cloudy and Breezy FEW065 SCT085 96.1 70 43% 103 29.58 998.9
25 15:53 S 22 G 32 8.00 A Few Clouds and Breezy FEW080 95 68 41% 100 29.61 999.8
25 14:53 S 18 G 31 9.00 Fair CLR 96.1 66.9 39% 100 29.64 1000.6
25 13:53 S 16 G 29 8.00 A Few Clouds FEW050 93.9 70 46% 100 29.69 1002.4
25 12:53 S 16 G 29 9.00 Fair CLR 91 68 91 60.1 47% 95 29.73 1003.6
25 11:53 SE 13 G 22 10.00 Fair CLR 84.9 64 50% 86 29.77 1005.2
25 10:53 SE 12 10.00 Fair CLR 79 61 54% 80 29.8 1006.6
25 09:53 SE 10 10.00 Fair CLR 73.9 59 60% 29.82 1007.4
25 08:53 SE 8 10.00 Fair CLR 70 55 59% 29.83 1007.9
25 07:53 E 7 10.00 Fair CLR 66 52 61% 29.84 1007.9
25 06:53 Calm 10.00 Fair CLR 60.1 48 70 57 65% 29.85 1008.5
25 05:53 S 7 10.00 Fair CLR 57.9 46.9 67% 29.84 1008.3
25 04:53 SE 6 10.00 Fair CLR 60.1 46.9 62% 29.83 1007.9
25 03:53 SE 9 10.00 Fair CLR 63 46.9 56% 29.82 1007.4
25 02:53 E 9 10.00 Fair CLR 66 46 49% 29.82 1007.2
25 01:53 E 8 10.00 Fair CLR 68 44.1 42% 29.83 1007.8
25 00:53 E 8 10.00 Fair CLR 70 42.1 86 70 37% 29.84 1008.0
24 23:53 E 6 10.00 Fair CLR 70 43 38% 29.86 1008.7
24 22:53 E 7 10.00 Fair CLR 72 44.1 37% 29.87 1009.0
24 21:53 E 6 10.00 Fair CLR 75 44.1 33% 77 29.84 1008.2
24 20:53 Calm 10.00 Fair CLR 77 44.1 31% 78 29.83 1007.9
24 19:53 NE 5 10.00 Fair CLR 84.9 39 20% 82 29.81 1006.8
24 18:53 N 9 10.00 Fair CLR 84.9 39 87.1 80.1 20% 82 29.8 1006.6
24 17:53 Vrbl 5 10.00 Fair CLR 87.1 39.9 19% 84 29.79 1006.4
24 16:53 NW 5 10.00 Fair CLR 84 39 20% 81 29.8 1006.4
24 15:53 Vrbl 7 10.00 Fair CLR 84 39.9 21% 81 29.81 1006.9
24 14:53 Calm 10.00 Fair CLR 82.9 41 23% 81 29.82 1007.0
24 13:53 N 12 G 22 10.00 Fair CLR 81 41 24% 79 29.83 1007.5
24 12:53 N 17 G 24 10.00 Fair CLR 80.1 37.9 81 60.1 22% 79 29.84 1007.8
24 11:53 NE 16 G 29 10.00 Fair CLR 78.1 35.1 21% 78 29.84 1007.9
24 10:53 N 23 G 30 10.00 A Few Clouds and Breezy FEW040 75.9 34 22% 77 29.84 1008.0
24 09:53 N 23 G 32 10.00 Mostly Cloudy and Breezy BKN037 72 35.1 26% 29.83 1007.7
24 08:53 N 21 G 32 10.00 Mostly Cloudy and Breezy BKN032 68 42.1 39% 29.79 1006.5
24 07:53 N 16 G 32 10.00 Partly Cloudy FEW002 SCT025 66 54 65% 29.76 1005.1
24 06:53 N 6 6.00 Fog/Mist CLR 60.1 57 75 60.1 90% 29.71 1003.6
24 05:53 SW 10 6.00 Fog/Mist CLR 64.9 62.1 90% 29.66 1001.5
24 04:53 S 8 2.00 Fog/Mist CLR 68 66.9 96% 29.65 1001.2
24 03:53 S 7 2.00 Fog/Mist CLR 70 69.1 97% 29.64 1000.8
24 02:53 S 10 3.00 Fog/Mist CLR 72 71.1 97% 29.64 1000.9
24 01:53 S 20 G 29 4.00 Fog/Mist SCT011 73.9 71.1 91% 29.65 1001.1
24 00:53 S 17 G 33 6.00 Mostly Cloudy with Haze BKN012 75 70 90 71.1 84% 75 29.67 1001.8
23 23:53 SE 21 G 26 8.00 Mostly Cloudy and Breezy BKN016 73.9 68 82% 29.68 1002.3
23 22:53 SE 10 10.00 Fair CLR 71.1 63 76% 29.69 1002.9
Date Time (cdt) Wind (mph) Vis. (mi.) Weather Sky Cond. Air Dwpt Max. Min. Relative Humidity Wind Chill (°F) Heat Index (°F) altimeter (in) sea level (mb) 1 hr 3 hr 6 hr
6 hour
Temperature (ºF) Pressure Precipitation (in)